Zurück zum Katalog

COSMOS 1247

AktivNavigationHEO
NORAD 12303·PAYLOAD·🇷🇺 Russia

Gestartet Feb 19, 1981 von Plesetsk Cosmodrome

Loading…

Nächste Überflüge (nächste 24 Stunden)

TLE

AktuellSource: Space-Track

Epoche: Sep 9, 2026, 13:46 UTC

1 12303U 81016A   26252.57379288  .00000080  00000-0  00000-0 0  9999
2 12303  69.3072 349.6926 6209726 336.3168   4.4896  2.02487979336886

Verfolge COSMOS 1247 in Echtzeit mit AllMySat

Download on the App Store